Find Starlink 30356

NORAD ID: 57748 Int'l Des: 2023-131 Owner: SPXS Country: US Constellation: starlink operational
LEOCIRCULAR

实时位置

正在加载3D地球...

关于 Starlink 30356

正在加载描述...

即将过境

Passes for default location (London). Set your location on the main map for personalized predictions.

高度历史

Loading altitude history...

两行轨道根数

1 57748U 23131S 26133.11674007 .00000613 00000-0 31802-4 0 9990
2 57748 43.0020 168.2673 0001304 275.7972 84.2730 15.27578167149773
Epoch: May 13, 2026 • Age: 9 hours

当前状态

高度 489.7 km
速度 7.62 km/s
星下点 -28.28°S, 79.42°E
发射日期 Sep 1, 2023
运行时间 2.6 years
类型 internet

技术详情

分类 Payload
质量 730.00 kg
干质量 700.00 kg
总质量 730.00 kg
长度 0.30 m
直径 4.10 m
跨度 29.00 m
形状 Box + pan
制造商 SPXS
平台类型 Starlink V2M
阶段状态 In Orbit
所有者/国家 SPXS/US

Most Searched